Theta_e
314 314 315 316 318 318 317 316 315 316 317 318 320 320 320 319 318 317 315 315 314 315 315 316 316 317 317 317 316 316 315 315 315 315 315 314 313 311 308 307 306 306 306 306 306 306 306 306 305 306 305 305 305 305 305 305 305 305 305 305 305 305 304 304 304 303 303 304 304 304 305 305 306 306 306 306 306 307 307 307 306 306 306 306 306 305
314 315 317 318 317 316 315 315 316 317 319 319 320 320 319 318 316 315 314 314 314 315 315 316 316 316 316 316 315 315 314 314 314 314 314 314 312 310 308 306 306 305 306 306 306 306 305 305 305 305 305 305 304 304 304 304 304 304 304 304 304 304 304 303 304 304 304 304 304 304 305 305 305 305 305 306 306 306 306 306 306 306 305 305 305 305
315 317 318 317 316 315 315 316 317 319 319 319 319 318 317 316 315 314 314 314 314 315 315 315 315 315 315 315 314 314 314 314 314 314 314 313 311 309 307 306 305 305 305 305 305 305 305 305 304 304 304 304 304 303 303 303 303 303 303 303 303 303 303 304 304 304 304 304 304 304 305 305 305 305 305 305 305 305 305 305 305 305 305 305 305 305
316 316 316 315 315 315 317 318 319 319 319 318 317 316 315 315 315 314 314 314 314 315 315 315 314 314 314 313 313 313 313 313 314 313 313 312 310 308 307 306 305 305 305 305 305 305 304 304 304 303 303 303 303 302 302 302 302 302 302 302 302 303 303 304 304 304 304 304 304 304 304 304 304 304 304 304 305 304 305 305 304 304 304 304 304 304
315 314 314 314 316 317 318 319 318 318 317 316 316 315 315 315 314 314 314 315 315 315 315 314 313 313 313 313 312 312 313 313 313 313 312 311 309 308 306 306 305 305 305 305 305 304 304 304 303 303 302 302 301 301 300 300 300 300 300 301 301 302 303 303 304 304 304 304 304 304 304 304 304 304 304 304 304 304 304 304 304 304 304 303 303 302
314 314 314 315 317 318 318 318 317 316 316 315 315 315 314 314 314 315 315 315 315 314 314 313 313 313 312 312 312 312 312 312 313 312 311 310 308 307 306 305 305 305 305 305 304 304 304 303 303 302 302 301 300 300 299 298 298 298 299 300 300 301 302 303 303 303 303 303 303 303 303 303 303 303 303 303 303 303 303 303 303 303 302 301 300 299
315 315 315 316 317 317 317 317 316 316 316 315 315 314 314 314 315 316 316 315 314 314 313 313 312 312 312 312 311 311 312 312 312 311 310 309 307 306 305 305 305 305 305 305 304 304 304 303 303 302 301 300 299 298 297 297 297 297 298 299 300 301 301 302 302 302 302 302 302 302 302 302 302 302 302 302 302 302 302 302 301 301 300 299 297 296
316 316 316 316 317 317 316 316 316 316 315 315 314 314 314 315 315 316 315 314 313 312 312 311 311 311 311 311 311 311 311 311 310 310 309 308 307 306 305 305 305 305 304 304 304 304 303 303 303 302 301 299 298 297 296 296 296 296 298 298 299 300 300 301 301 301 301 301 301 301 301 301 301 301 301 301 301 300 300 300 299 298 297 295 294 293
316 316 316 316 316 316 316 315 315 315 315 314 314 315 316 316 316 315 314 313 312 311 311 311 311 311 311 311 311 311 310 310 309 308 308 307 306 306 305 305 304 304 304 304 304 303 303 303 302 301 300 298 297 295 294 294 295 295 297 298 298 299 299 299 299 299 300 300 300 300 300 300 300 299 299 299 298 298 297 296 295 294 293 292 292 291
315 315 315 315 315 315 314 314 314 314 314 314 315 315 316 315 315 313 312 311 311 311 310 310 310 310 310 311 310 310 310 309 308 307 307 307 306 305 305 305 304 304 304 304 304 303 303 303 302 300 298 296 295 294 293 293 293 294 295 296 297 297 298 298 298 298 298 298 298 298 298 297 297 297 296 296 295 295 294 293 293 292 291 291 290 290
313 314 313 313 313 313 313 313 314 314 314 315 315 315 315 314 313 312 312 311 311 311 310 310 310 310 310 310 310 309 309 308 307 307 307 306 305 305 304 304 304 304 303 303 303 303 303 302 301 299 297 295 294 293 292 292 292 293 294 295 295 295 296 296 296 296 296 295 295 295 295 295 294 294 294 293 293 292 292 291 291 290 290 290 289 289
311 312 312 312 312 313 313 314 314 315 315 315 314 314 313 313 313 312 311 311 311 311 310 310 310 310 310 310 309 309 308 307 307 307 306 306 305 304 304 304 303 303 303 303 303 303 302 301 299 297 295 293 292 292 291 291 291 292 292 293 293 293 294 293 293 293 293 293 293 293 292 292 292 292 291 291 291 290 290 290 290 290 289 289 289 289
311 311 312 312 313 314 314 315 315 315 316 315 315 314 314 313 313 312 311 311 310 310 310 310 310 310 309 309 308 308 307 307 306 306 305 305 304 304 304 303 303 303 303 303 303 302 301 299 297 295 293 292 292 291 291 291 291 291 291 291 291 291 291 291 292 291 291 291 291 291 290 290 290 290 290 290 290 290 289 289 289 289 289 289 289 289
311 312 312 313 314 314 315 315 316 316 316 315 314 314 313 312 312 311 311 310 310 310 310 309 309 309 308 308 307 307 306 306 305 305 304 304 304 304 303 303 303 303 302 302 302 301 299 297 295 293 292 291 291 291 290 290 290 290 290 290 290 290 290 290 290 290 290 290 290 289 289 289 289 289 289 289 289 289 289 289 289 289 289 289 289 289
312 313 313 314 314 315 315 316 316 315 315 314 313 312 312 311 311 310 310 310 310 310 309 309 309 308 308 307 307 306 305 305 304 304 304 303 303 303 303 303 302 302 302 301 300 299 297 295 293 292 291 291 290 290 290 290 290 289 289 289 289 289 289 289 289 289 289 289 289 289 289 289 289 289 289 290 289 289 289 289 289 289 289 289 289 289
313 313 314 314 314 314 315 315 314 313 313 312 312 311 311 311 310 310 310 310 309 309 309 308 308 308 307 306 306 305 305 304 304 304 303 303 303 303 303 302 302 302 301 300 299 297 295 293 292 291 291 290 290 290 289 289 289 289 289 289 289 289 289 289 289 289 289 289 289 289 289 289 289 289 289 290 290 290 290 289 289 289 289 289 289 289
313 313 313 313 313 313 313 313 312 312 311 311 311 311 310 310 310 309 309 309 309 308 308 308 308 307 306 306 305 305 304 304 304 303 303 303 303 302 302 302 302 301 300 299 297 295 293 292 291 291 290 290 290 289 289 289 289 289 289 289 289 289 289 289 289 289 289 289 289 289 289 289 289 290 290 290 290 290 289 289 289 289 289 289 289 289
312 312 311 311 311 311 311 311 311 311 310 311 310 310 310 309 309 309 308 308 308 308 308 307 307 307 306 305 304 304 304 304 303 303 303 302 302 302 302 302 301 300 299 297 295 293 292 291 291 290 290 290 289 289 289 289 289 289 289 289 289 289 289 289 289 289 289 289 289 289 289 289 289 289 290 290 290 289 289 289 289 289 289 289 289 289
311 311 310 310 310 310 310 310 310 310 310 310 310 310 309 309 308 308 308 308 307 307 307 306 306 305 305 304 304 304 303 303 303 302 302 302 302 302 301 301 300 298 297 295 293 292 291 291 290 290 290 290 289 289 289 289 289 289 289 289 289 289 289 289 289 289 289 289 289 289 289 289 289 289 289 289 289 289 289 289 289 289 289 289 289 289
310 310 310 309 309 310 310 310 310 309 309 309 309 309 308 308 308 307 307 307 306 306 306 305 305 304 304 304 303 303 303 302 302 302 302 302 301 301 300 299 298 296 295 293 292 291 291 290 290 290 290 289 289 289 289 289 289 289 289 289 288 288 288 288 289 289 289 289 289 289 289 289 289 289 289 289 289 289 289 289 289 289 289 289 289 289
310 310 309 309 309 309 309 309 309 308 308 308 308 308 308 307 307 307 306 306 305 305 304 304 304 303 303 303 302 302 302 302 302 301 301 301 300 300 299 298 296 294 293 292 291 290 290 290 290 289 289 289 289 289 289 289 289 289 289 288 288 288 288 288 288 288 289 289 289 289 289 289 289 289 289 289 289 289 289 289 289 289 289 289 289 289
309 309 309 309 309 309 309 308 308 308 308 307 307 307 307 306 306 305 305 304 304 304 304 304 303 303 302 302 302 302 301 301 301 301 300 300 299 298 297 295 294 292 292 291 290 290 290 289 289 289 289 289 289 289 289 289 289 289 288 288 288 288 288 288 288 288 288 288 289 289 289 289 289 289 289 289 289 289 289 289 289 289 289 289 289 289
308 308 308 308 308 308 308 308 307 307 307 307 306 306 306 305 305 304 303 303 303 303 303 302 302 302 302 301 301 301 301 301 301 301 300 299 297 296 295 293 292 291 291 290 290 290 289 289 289 289 289 289 289 289 289 288 288 288 288 288 288 288 288 288 288 288 288 288 288 288 288 288 288 289 289 289 289 289 289 289 290 290 290 290 290 290
307 307 307 307 307 307 307 307 307 306 306 306 305 305 305 304 304 304 303 303 302 302 302 302 302 301 301 301 301 301 301 301 300 299 298 297 295 294 293 292 291 291 290 290 290 289 289 289 289 289 289 289 289 289 288 288 288 288 288 288 288 288 288 288 288 288 288 288 288 288 288 288 288 288 288 289 289 289 289 290 290 290 290 290 290 290
305 305 306 306 306 306 306 306 306 305 305 305 304 304 304 303 303 303 303 303 303 303 302 302 301 301 301 301 300 300 300 299 298 297 296 294 293 292 291 291 290 290 290 289 289 289 289 289 289 289 289 289 289 288 288 288 288 288 288 288 288 288 288 288 288 288 288 288 288 288 288 288 288 288 288 289 289 289 289 290 290 290 290 290 290 290
304 304 304 305 305 305 305 305 304 304 304 303 303 303 303 303 303 303 303 303 303 302 302 301 301 301 300 300 299 298 297 296 295 294 293 292 292 291 291 290 290 289 289 289 289 289 289 289 289 289 289 289 289 288 288 288 288 288 288 288 288 288 288 288 288 288 288 288 288 288 288 288 288 288 288 289 289 289 289 290 290 290 290 290 290 290
303 303 303 304 304 304 304 304 303 303 303 303 303 303 303 303 303 303 303 302 302 301 301 300 299 299 298 297 296 295 295 294 293 292 291 291 291 290 290 290 290 289 289 289 289 289 289 289 289 289 289 289 288 288 288 288 288 288 288 288 288 288 288 288 288 288 288 288 288 288 288 288 288 288 289 289 289 289 290 290 290 290 290 290 290 290
303 302 303 303 303 303 303 303 303 302 302 302 302 302 302 302 301 301 300 300 299 299 298 297 297 296 295 294 293 293 292 292 291 291 290 290 290 290 290 290 289 289 288 288 288 288 288 288 288 288 289 289 288 288 288 288 288 288 288 288 288 288 288 288 288 288 288 288 288 288 288 288 288 288 289 289 289 289 290 290 290 290 290 290 290 290
302 302 302 301 301 301 301 301 300 300 300 300 299 299 299 298 298 298 297 296 296 295 295 294 294 293 292 292 291 291 290 290 290 290 290 290 290 290 289 289 289 288 288 288 288 288 288 288 288 288 288 288 288 288 288 288 288 288 288 288 288 288 288 289 289 289 289 288 288 288 288 288 288 288 289 289 289 289 290 290 290 290 290 290 290 290
301 301 300 300 299 299 298 297 297 296 296 295 295 294 294 294 293 293 293 293 293 293 292 292 292 291 291 290 290 290 290 290 290 290 289 289 289 289 289 289 289 288 288 288 288 288 288 289 289 288 288 288 288 288 288 288 288 288 288 288 289 289 289 289 289 289 289 289 289 288 288 288 288 288 289 289 289 289 290 290 290 290 290 290 290 290
299 299 298 297 296 295 295 294 293 293 292 292 291 291 291 290 290 290 290 290 291 291 291 290 290 290 290 290 289 289 290 290 290 289 289 289 289 289 289 289 288 288 288 288 288 288 288 289 289 289 288 288 288 288 288 288 288 288 288 288 289 289 289 289 289 289 289 289 289 289 289 288 288 288 289 289 289 289 289 290 290 290 290 290 290 290
297 296 295 294 293 293 292 291 291 290 290 290 289 289 289 289 289 289 289 289 289 289 289 289 289 289 289 289 289 289 289 289 289 289 288 289 289 289 289 288 288 288 288 288 288 288 288 289 289 289 288 288 288 288 288 288 288 288 288 288 289 289 289 289 289 289 289 289 289 289 289 289 289 289 289 289 289 289 289 289 290 290 290 290 290 290
294 293 293 292 291 291 290 290 289 289 289 289 289 289 289 289 289 289 289 289 288 289 289 289 289 289 288 288 288 288 288 288 288 288 288 288 288 288 288 288 288 288 288 288 288 288 288 288 289 288 288 288 288 288 288 288 288 288 288 289 289 289 289 289 289 289 289 289 289 289 289 289 289 289 289 289 289 289 289 289 289 290 290 290 290 290
292 291 291 290 290 289 289 289 289 289 288 288 288 288 288 288 289 289 289 289 288 288 288 288 288 288 288 288 288 288 288 288 288 288 288 288 288 288 288 288 288 288 288 288 288 288 288 288 288 288 288 288 288 288 288 288 288 288 289 289 289 289 289 289 289 289 289 289 290 289 289 289 289 289 289 289 289 289 289 289 289 289 289 290 290 290
290 290 290 289 289 289 289 289 288 288 288 288 288 288 288 288 288 288 288 288 288 288 288 288 288 288 288 288 288 287 287 287 287 287 288 288 288 288 288 288 288 288 288 288 288 288 288 288 288 288 288 288 288 288 288 288 288 289 289 289 289 289 289 289 289 289 289 290 290 290 290 290 289 289 289 289 289 289 289 289 289 289 289 289 289 290
289 289 289 289 288 288 288 288 288 288 288 288 288 287 288 288 288 288 288 288 288 288 288 288 288 287 287 287 287 287 287 287 287 288 288 288 288 287 287 287 288 287 288 288 288 288 288 288 288 288 287 287 287 288 288 288 288 288 289 289 289 289 289 289 289 289 289 289 289 289 289 289 289 289 289 289 289 289 289 289 289 289 289 289 289 290
288 288 288 288 288 288 288 288 288 288 288 287 287 287 287 287 287 287 287 287 287 287 287 287 287 287 287 287 287 287 287 287 287 287 287 287 287 287 287 287 287 287 288 288 288 288 288 287 287 287 287 287 287 287 288 288 288 288 288 288 289 289 289 289 289 289 289 289 289 289 289 289 289 289 289 289 289 289 289 289 289 289 289 289 289 290
288 288 288 287 287 287 287 287 287 287 287 287 287 287 287 287 287 287 287 287 287 287 287 287 287 287 287 287 287 286 287 287 287 287 287 287 287 287 287 287 287 287 287 288 288 287 287 287 287 287 287 287 287 287 287 287 288 288 288 288 288 288 288 288 289 289 289 289 289 289 289 289 289 289 289 289 289 289 289 289 289 289 289 289 290 290
287 287 287 287 287 287 287 287 286 286 286 287 287 287 287 287 287 287 287 287 287 287 287 287 287 287 287 286 286 286 286 286 287 287 287 287 287 287 287 287 287 287 287 287 287 287 287 287 287 287 287 287 287 287 287 287 287 287 287 288 288 288 288 288 288 288 289 289 289 289 289 289 289 289 289 289 289 289 289 289 289 289 289 289 290 290
287 287 287 287 286 286 286 286 286 286 286 286 286 287 287 287 287 287 287 287 287 287 286 286 286 286 286 286 286 286 286 286 286 287 287 287 287 287 287 287 287 287 287 287 287 287 287 287 287 287 287 287 287 287 287 287 287 287 287 287 287 287 288 288 288 288 288 289 289 289 289 289 289 289 289 289 289 289 289 289 289 289 289 289 290 290
287 287 287 286 286 286 286 285 285 285 286 286 286 286 286 286 287 287 287 286 286 286 286 286 286 286 286 286 286 286 286 286 286 286 286 287 287 287 287 287 287 287 287 287 287 287 287 287 287 287 287 287 287 287 287 286 286 287 287 287 287 287 287 288 288 288 288 288 289 289 289 289 289 289 289 289 289 289 289 289 289 289 290 290 290 290
286 286 286 286 286 286 285 285 285 285 285 285 285 285 286 286 286 286 286 286 286 286 286 286 286 286 286 286 286 286 286 286 286 286 286 286 286 286 286 287 286 286 287 287 287 287 287 287 287 287 287 287 287 287 287 286 286 286 287 287 287 287 287 287 288 288 288 288 288 289 289 289 289 289 289 289 289 289 289 289 289 290 290 290 290 290
286 286 286 286 286 286 285 285 285 285 285 285 285 285 285 285 285 286 286 286 286 286 286 286 286 286 286 286 286 286 286 286 286 286 286 286 286 286 286 286 286 286 286 287 287 287 287 287 287 287 287 287 287 287 287 287 286 287 287 287 287 287 287 287 287 288 288 288 288 288 289 289 289 289 289 289 289 289 289 289 289 289 290 290 290 290
285 286 286 286 286 285 285 285 285 285 285 285 284 284 285 285 285 285 285 285 285 285 285 286 286 286 286 286 286 286 286 286 286 286 286 286 286 286 286 286 286 286 286 286 287 287 287 287 287 287 287 286 286 287 287 287 287 287 287 287 287 287 287 287 287 287 287 288 288 288 288 289 289 289 289 289 289 289 289 289 289 289 289 289 290 290
285 286 286 286 286 285 285 285 285 285 285 285 284 284 284 284 285 285 285 285 285 285 285 285 286 286 286 287 287 286 286 286 286 286 286 286 286 286 286 286 286 286 286 286 286 286 287 287 287 287 287 286 287 287 287 287 287 287 287 287 287 287 287 287 287 287 287 287 288 288 288 288 289 289 289 289 289 289 289 289 289 289 289 289 289 289
285 286 286 286 285 285 285 285 285 285 285 285 284 284 284 284 285 285 285 285 285 285 285 285 286 286 287 287 287 286 286 286 285 285 285 286 286 286 286 286 286 286 286 286 286 286 286 287 287 287 287 287 287 287 287 288 287 287 287 287 287 287 287 287 287 287 287 287 287 287 288 288 288 289 289 289 289 289 289 289 289 289 289 289 289 289
286 285 285 285 285 285 285 285 285 285 285 285 285 284 285 285 285 285 285 285 285 285 285 285 286 286 286 287 287 286 286 286 285 285 285 285 286 286 286 286 286 286 286 286 286 286 286 287 287 287 287 287 287 288 288 288 288 288 288 287 287 287 287 287 287 287 287 287 287 287 287 288 288 289 289 289 289 289 289 289 289 289 289 289 289 289
286 286 286 285 285 285 285 285 285 285 285 285 285 285 285 285 285 285 285 285 285 285 285 286 286 286 286 287 287 286 286 286 285 285 285 285 285 286 286 286 286 286 286 286 286 286 286 286 287 287 287 287 288 288 288 288 288 288 288 287 287 287 287 287 287 287 287 287 287 287 287 287 288 288 289 289 289 289 289 289 289 289 289 289 289 289
286 286 286 286 286 286 286 285 285 285 285 285 285 285 285 285 285 285 285 285 285 286 286 286 286 286 287 287 287 287 286 286 286 285 285 285 285 285 286 286 286 286 286 286 286 286 286 287 287 287 287 287 288 288 288 288 288 288 287 287 287 287 288 288 287 287 286 287 287 287 287 287 288 288 288 289 289 289 289 289 289 288 288 288 288 289
286 286 286 286 286 286 286 286 286 286 286 285 285 285 285 285 285 285 286 286 286 286 286 286 286 286 287 287 287 287 286 286 286 286 285 285 285 285 286 286 286 286 286 286 286 286 287 287 287 287 287 287 288 288 288 288 288 288 288 288 288 288 288 288 287 287 287 287 287 287 287 287 288 288 288 288 289 289 289 289 289 288 288 288 288 288
287 287 287 286 286 286 286 286 286 286 286 286 286 286 286 286 286 286 286 286 286 286 286 286 287 287 287 287 287 287 287 287 286 286 286 285 285 285 286 286 286 286 286 286 286 286 286 287 287 288 288 288 288 288 288 289 289 289 288 288 288 288 288 288 288 287 287 287 287 287 287 287 288 288 288 288 289 289 289 289 289 288 288 287 288 288
Wind_Speed
34 31 29 27 26 26 26 26 25 25 25 25 25 25 24 23 23 23 23 22 22 21 21 22 23 24 25 26 26 25 24 23 21 20 19 17 16 16 16 16 16 16 16 16 16 16 16 16 16 16 16 16 17 17 18 18 19 19 19 19 18 18 18 18 19 19 19 18 17 18 19 21 21 22 22 23 23 23 24 23 23 23 23 22 22 21
33 31 29 28 28 27 26 25 25 25 25 25 24 23 23 23 24 24 23 22 22 21 21 21 22 23 24 24 25 24 23 21 20 19 18 17 16 15 15 15 16 16 16 16 15 15 15 15 15 15 15 15 15 16 16 17 17 17 18 18 17 17 17 18 19 19 19 18 18 18 19 19 19 19 20 21 21 22 22 22 22 22 22 21 21 21
32 31 31 30 29 27 26 25 25 24 24 23 23 22 23 24 25 24 23 22 21 21 21 22 22 23 23 23 23 22 21 20 19 18 17 16 15 15 15 15 15 15 16 16 15 15 14 14 14 15 15 15 16 16 17 17 17 18 18 19 18 18 19 19 20 20 20 20 19 19 18 18 17 17 18 18 19 20 20 20 20 20 20 20 20 20
33 32 32 30 28 26 25 24 24 23 22 22 22 23 25 25 25 24 23 21 21 21 22 22 22 22 22 22 21 21 20 19 18 18 17 16 15 15 15 15 15 15 15 15 15 15 14 14 14 14 15 15 16 16 17 17 18 18 19 19 19 19 19 19 19 19 19 18 18 17 16 16 16 16 16 17 17 18 18 18 18 19 19 19 19 18
33 32 31 28 26 25 25 23 22 22 22 23 24 25 26 26 25 23 21 20 21 21 22 22 22 22 21 21 20 19 19 19 18 17 16 15 15 15 15 15 15 15 15 15 15 14 14 14 14 14 15 15 16 16 17 17 18 18 18 18 17 17 17 17 17 16 16 16 15 15 15 15 15 15 15 16 16 16 17 17 17 18 18 18 18 17
33 31 30 28 27 26 25 24 23 24 24 25 26 27 26 25 24 22 21 21 21 22 23 23 22 22 21 20 19 19 19 19 18 16 15 14 14 15 15 15 15 15 15 15 15 14 14 14 14 14 15 16 16 17 17 17 17 17 16 15 15 14 14 14 14 14 14 14 14 14 14 14 14 15 15 15 16 16 16 16 17 17 17 17 16 16
32 31 30 29 28 28 28 27 28 28 28 28 27 27 26 24 23 22 21 22 22 23 23 23 22 21 20 19 19 19 19 18 17 15 14 14 14 15 16 16 16 16 15 15 15 14 14 14 14 15 16 16 17 17 17 17 16 15 15 14 13 13 13 13 13 14 14 14 14 14 14 14 15 15 15 15 15 16 16 16 16 16 16 16 15 14
32 31 30 29 29 30 30 31 31 31 30 29 27 26 25 24 23 23 23 23 23 23 22 22 21 21 20 19 19 18 18 17 16 15 14 14 15 16 17 16 16 16 15 15 15 14 14 15 15 16 16 17 18 18 17 16 15 15 14 14 13 13 13 14 14 14 14 14 15 15 15 15 15 15 15 15 16 16 16 16 16 16 15 15 14 13
30 29 29 30 30 31 33 33 33 32 30 28 26 25 25 24 24 24 23 23 23 22 22 21 20 20 20 19 18 17 17 16 15 14 14 14 16 17 17 17 16 16 15 15 15 14 15 15 16 16 17 17 18 18 18 16 15 14 14 14 14 14 14 15 15 15 15 15 15 15 15 15 15 15 15 16 16 16 15 15 15 15 14 14 13 12
30 30 31 32 34 34 34 32 31 29 28 26 25 25 25 24 24 23 23 22 22 21 21 20 20 20 19 19 18 17 16 15 14 14 14 16 17 18 18 17 16 16 16 15 15 15 15 16 16 17 17 18 18 19 18 16 14 13 13 14 14 15 15 15 15 15 16 15 15 15 15 15 15 15 15 15 15 15 15 15 14 14 13 13 12 12
33 33 34 34 35 34 32 29 27 26 25 25 26 25 25 24 23 23 22 22 21 20 20 20 19 19 19 18 17 16 15 14 14 14 16 17 18 18 17 17 16 16 16 15 15 15 16 16 17 17 17 18 18 19 18 16 14 13 13 13 14 15 15 15 15 16 16 15 15 15 15 15 15 15 15 15 15 14 14 14 14 13 13 12 12 12
32 33 33 32 31 29 26 25 24 24 25 25 25 24 23 22 22 21 21 21 20 20 19 19 18 18 18 17 17 16 14 14 14 15 17 19 19 18 17 17 16 16 16 16 16 16 16 17 17 18 18 17 18 18 17 16 14 13 13 13 14 14 15 15 15 15 15 15 15 15 15 15 15 15 15 14 14 14 14 14 14 13 13 12 12 12
29 29 28 27 25 24 23 23 24 25 25 24 23 22 21 20 19 19 18 18 18 18 18 17 17 17 17 16 16 15 15 14 15 16 18 19 19 18 17 17 16 16 16 16 16 16 17 17 17 18 17 17 17 17 17 15 14 14 13 13 14 14 14 15 15 15 15 15 14 14 14 14 14 14 14 14 14 14 14 14 14 13 13 12 12 12
25 25 24 24 23 23 23 24 24 24 23 21 20 20 19 18 17 17 16 16 16 16 16 16 17 17 16 16 16 15 15 15 16 17 18 19 18 18 17 17 17 17 16 16 16 17 17 17 17 17 17 17 17 17 16 15 14 14 14 14 14 14 14 14 14 14 14 14 14 14 14 14 14 14 14 14 14 14 14 14 13 13 13 13 13 13
24 24 23 23 23 24 24 24 23 21 19 19 18 17 17 16 16 16 16 15 15 15 15 16 16 17 17 17 16 15 15 16 17 18 18 18 18 17 17 17 17 17 17 17 17 17 18 18 17 17 17 17 16 16 16 15 14 14 14 14 14 14 14 14 14 14 14 14 14 14 14 14 14 14 14 14 14 13 13 13 13 13 13 12 13 13
22 22 22 22 22 22 22 20 18 16 15 15 15 14 14 14 14 14 14 14 14 15 15 16 17 17 18 18 17 16 16 16 17 18 18 18 18 17 17 16 16 17 17 17 17 18 18 18 17 17 17 16 16 16 15 15 15 14 14 14 14 14 14 14 14 14 14 13 13 13 13 13 14 14 13 13 13 13 13 13 13 12 12 12 12 13
20 19 19 18 18 17 17 15 13 12 11 11 11 11 11 12 12 13 13 14 14 15 16 17 18 18 19 19 18 17 16 16 17 18 17 17 17 17 17 16 16 17 17 18 18 18 18 18 17 17 16 16 16 16 15 15 15 14 14 14 14 14 14 14 13 13 13 13 13 13 13 13 13 13 13 12 12 12 12 12 12 12 12 12 12 12
16 15 15 14 13 12 11 10 10 9 9 9 9 9 10 11 12 13 14 14 15 16 17 17 17 18 18 18 18 17 16 16 16 17 17 17 17 17 17 17 17 17 18 18 18 19 18 18 17 17 16 16 16 16 15 15 15 14 14 14 14 13 13 13 13 13 13 12 12 12 12 12 12 12 12 12 11 11 11 11 11 11 11 11 11 12
12 12 12 11 10 10 9 8 8 8 8 8 8 9 10 11 12 13 14 15 16 16 17 17 17 16 16 17 17 16 15 15 16 16 16 16 16 17 17 17 17 18 18 18 18 19 18 18 17 17 16 16 16 16 15 15 15 14 14 14 14 13 13 13 13 12 12 12 12 12 12 12 12 12 11 11 11 11 11 11 11 11 11 11 11 11
10 9 9 9 9 8 8 8 8 8 8 9 9 10 10 12 13 14 15 15 16 16 16 16 16 15 14 14 15 14 14 14 15 16 16 16 16 17 18 18 18 18 18 18 18 18 18 18 18 17 17 16 16 16 15 15 15 14 14 14 13 13 13 13 12 12 12 12 12 12 12 12 12 11 11 11 10 10 10 10 10 10 10 10 10 10
8 8 8 8 8 8 9 8 8 9 9 10 10 11 12 13 13 14 15 15 15 15 15 15 14 14 14 14 14 14 14 15 15 16 16 16 17 18 18 18 18 18 18 18 18 18 18 18 18 17 17 16 16 16 15 15 15 14 14 13 13 13 13 12 12 12 12 12 12 12 12 12 11 11 11 10 10 10 10 9 9 9 9 9 9 9
8 8 9 9 9 9 9 9 10 10 11 11 11 12 12 13 13 13 13 13 13 13 13 13 13 14 14 15 15 15 16 16 16 16 17 17 18 18 18 18 18 18 18 18 18 18 18 18 18 17 17 16 16 16 15 15 15 14 14 13 13 13 13 12 12 12 12 12 12 12 12 11 11 11 10 10 10 9 9 9 9 9 9 9 9 9
8 9 9 10 10 10 10 10 11 11 11 12 12 12 12 12 12 11 11 11 11 11 12 13 14 15 15 16 17 17 17 17 17 18 18 18 18 19 19 18 18 18 18 17 18 18 18 18 17 17 16 16 16 15 15 15 14 14 14 13 13 13 12 12 12 12 12 12 12 12 12 11 11 10 10 9 9 9 9 9 9 9 9 9 9 9
8 9 9 10 10 10 11 11 11 11 11 11 11 12 12 12 12 12 12 12 12 13 14 14 15 16 17 17 18 18 18 18 18 18 19 19 19 19 19 18 18 18 17 17 17 18 18 17 17 16 16 16 15 15 15 14 14 14 14 13 13 13 12 12 12 12 12 12 12 12 12 11 11 10 10 9 9 9 9 9 9 9 9 9 9 9
8 9 9 10 10 10 11 11 11 11 11 11 11 12 12 12 13 13 14 14 15 15 16 16 16 17 18 18 18 18 18 18 18 18 18 19 19 19 19 18 17 17 17 17 17 17 17 17 16 16 15 15 15 14 14 14 14 14 14 13 13 13 12 12 12 13 13 13 12 12 12 11 11 10 10 9 9 9 9 9 9 9 9 9 9 10
9 9 9 10 10 10 10 10 10 10 10 11 11 11 12 12 13 14 14 15 16 16 16 17 17 18 18 18 18 18 19 19 18 18 18 19 19 19 19 17 17 17 17 17 17 16 16 16 15 15 15 14 14 14 14 14 14 14 13 13 13 12 12 12 13 13 13 13 12 12 12 11 11 10 10 10 10 9 9 9 9 10 10 10 10 10
9 9 9 9 10 10 10 10 10 10 11 11 11 12 12 13 14 14 15 16 16 16 17 17 18 18 18 18 18 18 18 18 18 18 18 18 19 19 18 17 16 16 16 16 16 16 16 15 15 14 14 14 13 13 14 14 14 13 13 13 12 12 12 12 13 13 13 12 12 12 11 11 11 10 10 10 10 10 10 10 10 10 10 11 11 11
9 9 9 9 9 10 10 10 11 11 11 12 13 13 14 14 14 15 15 16 16 16 17 18 18 18 18 17 18 18 18 18 18 18 18 18 19 19 18 16 15 16 16 16 16 16 15 15 14 14 13 13 13 13 14 14 13 13 13 12 12 12 12 12 13 12 12 12 12 12 11 11 11 11 11 10 10 10 11 11 11 11 11 11 11 11
9 9 10 10 10 11 11 11 12 12 13 13 14 15 15 15 15 15 15 16 16 17 18 18 18 17 17 17 18 18 19 18 18 18 18 18 19 19 17 16 15 15 16 16 16 15 15 14 14 13 13 13 13 13 13 13 13 13 12 12 12 12 12 12 12 12 12 12 12 12 11 11 11 11 11 11 11 11 11 11 12 12 12 12 12 12
10 10 11 11 11 12 12 13 13 14 14 14 15 16 16 16 16 16 17 18 18 18 18 18 18 17 17 18 18 19 19 18 17 17 17 18 19 18 17 16 15 15 15 15 15 15 15 14 13 13 13 13 13 13 13 13 13 13 12 12 12 12 12 12 12 12 12 12 12 12 12 12 11 11 11 11 11 11 12 12 12 12 12 12 12 12
11 11 12 12 12 13 13 14 14 14 15 15 15 16 17 17 17 17 18 18 18 18 18 18 18 18 18 18 19 19 19 17 16 16 16 17 18 18 17 16 16 15 15 15 15 15 14 13 13 13 13 13 13 13 13 13 13 13 13 12 12 12 12 12 12 12 12 12 12 12 12 12 12 12 12 12 12 12 12 12 12 13 12 12 12 12
13 13 13 13 14 14 14 14 15 15 15 15 15 16 17 17 17 17 17 18 18 18 18 18 18 19 19 19 19 19 18 16 15 15 15 16 17 17 17 16 16 15 15 15 15 14 13 12 12 12 13 13 13 13 13 13 13 13 13 13 12 12 12 12 12 12 12 12 12 12 12 12 12 12 12 12 12 12 12 13 13 13 13 13 13 13
14 14 15 15 15 15 15 15 15 15 15 15 15 16 16 16 17 17 17 18 18 18 18 18 19 19 19 19 19 19 18 16 15 15 15 16 17 17 16 16 15 15 15 15 15 15 14 13 12 12 12 13 13 13 13 13 13 13 13 13 13 13 13 13 13 13 13 13 13 13 13 13 13 13 13 13 13 13 13 13 14 14 14 13 13 14
16 16 16 16 15 15 15 15 15 15 15 15 15 15 16 16 16 17 17 18 18 18 18 18 19 19 19 19 19 18 17 17 16 16 16 17 17 17 16 15 15 15 15 15 15 15 15 14 13 12 12 13 13 13 13 13 13 13 13 13 13 13 13 13 13 13 13 13 13 13 13 13 13 13 13 14 14 14 14 14 15 15 15 14 15 15
16 16 16 16 16 16 15 15 14 14 14 14 14 15 15 16 16 17 17 18 18 18 18 18 18 18 18 18 18 17 17 17 17 17 17 17 17 17 15 15 14 14 15 15 16 15 15 15 14 14 13 13 13 14 14 13 13 13 13 13 13 13 14 13 13 13 13 13 13 14 14 14 14 14 14 14 15 15 15 15 16 16 16 16 16 16
15 15 16 16 16 15 15 15 15 14 14 14 14 15 16 16 17 17 17 17 17 17 17 17 17 17 17 17 16 16 16 17 17 17 17 17 17 17 16 15 14 14 15 15 16 16 15 15 15 14 14 14 14 14 14 14 13 13 13 14 14 14 14 14 14 14 14 14 14 14 14 14 15 15 15 15 16 16 16 17 17 17 17 17 17 17
15 14 15 15 15 15 15 15 15 15 14 14 15 15 16 16 17 17 17 17 17 17 17 16 16 16 16 15 15 15 16 16 16 16 17 17 17 17 16 15 15 15 15 15 16 16 15 15 15 15 15 16 16 15 15 14 14 14 14 14 14 14 14 14 14 14 14 14 15 15 15 15 15 16 16 16 17 17 17 17 18 18 18 18 18 18
14 13 13 14 14 14 15 15 15 15 15 15 15 16 16 16 16 16 16 16 16 16 16 15 15 15 15 14 15 15 15 15 15 16 16 16 16 16 17 16 15 15 15 16 16 16 16 16 16 16 16 16 16 15 15 15 15 15 15 15 15 15 15 15 15 15 15 15 15 16 16 16 16 16 17 17 17 17 18 18 18 18 19 19 19 19
13 12 12 13 13 14 14 14 15 15 15 15 16 16 16 16 15 15 15 15 15 15 15 15 14 14 14 14 14 15 15 15 15 15 16 16 16 16 16 16 16 16 16 16 17 17 17 17 17 17 17 17 16 16 15 15 16 16 16 16 16 16 16 16 16 16 16 16 16 16 16 16 17 17 17 18 18 18 19 19 19 19 19 20 20 20
12 12 12 12 13 13 14 14 14 15 15 16 16 16 16 15 15 14 14 14 14 14 14 14 14 14 14 14 14 14 14 15 15 15 15 16 16 16 16 16 16 17 17 17 17 18 18 18 18 17 17 17 17 16 16 16 16 16 17 17 17 16 16 16 16 16 16 16 16 16 17 17 17 17 18 18 19 19 19 20 20 20 20 20 20 20
12 12 11 12 12 13 14 14 14 15 15 15 15 15 15 15 15 14 14 14 14 14 14 14 14 14 14 14 14 14 14 14 15 15 15 16 16 16 16 17 17 17 17 18 18 18 18 18 18 18 18 18 17 17 17 17 17 17 17 18 17 17 17 17 17 17 17 17 17 17 17 17 17 18 18 19 19 20 20 21 21 21 21 21 21 21
12 12 11 12 12 13 13 14 14 14 15 15 15 15 15 15 15 15 15 14 14 14 14 14 14 14 14 14 14 14 14 14 15 15 15 16 16 16 17 17 17 17 18 18 18 19 19 19 19 18 18 18 18 18 18 18 18 18 18 18 18 18 18 18 18 17 17 17 17 17 18 18 18 18 19 19 20 20 21 21 22 22 22 22 22 22
12 12 12 12 13 13 14 14 14 14 14 15 15 15 15 15 15 15 15 15 15 14 14 14 14 14 14 14 14 13 14 14 14 15 15 16 16 17 17 17 17 17 18 18 19 19 19 19 19 19 18 18 19 19 19 19 19 19 18 18 18 19 19 19 18 18 18 18 18 18 19 19 19 20 20 20 21 21 22 22 22 22 22 22 22 22
12 12 13 13 13 14 14 15 15 15 15 15 15 15 15 15 15 15 15 15 15 15 15 15 15 15 15 15 14 14 14 14 14 15 15 16 16 17 17 17 18 18 18 19 19 19 19 19 19 19 19 19 20 20 20 19 19 19 19 19 19 20 20 20 19 18 19 19 19 20 20 20 20 21 21 21 22 22 22 22 23 23 23 23 23 23
13 13 13 14 14 14 14 15 15 16 16 16 15 15 15 15 15 16 16 16 16 15 15 16 16 16 16 15 15 14 14 14 15 15 15 16 17 17 17 18 18 18 19 19 19 19 20 20 20 19 20 20 21 21 21 20 19 19 19 19 19 19 19 19 19 19 19 20 20 21 21 21 22 22 22 22 22 22 23 23 23 23 23 23 23 23
14 14 14 14 14 15 15 15 16 16 16 16 16 15 15 15 16 16 16 16 16 16 16 16 17 17 17 16 15 15 15 15 15 16 16 17 17 17 18 18 19 19 19 19 20 20 20 20 20 20 21 21 22 22 21 20 19 19 18 19 19 19 20 20 19 19 20 20 21 22 22 23 23 23 24 24 23 23 23 23 23 23 23 23 23 23
14 14 14 14 15 15 16 16 16 16 16 16 16 16 16 16 16 17 17 17 17 17 17 17 18 18 18 17 16 15 15 15 16 16 17 17 18 18 18 18 19 19 20 20 20 21 21 21 21 21 21 22 22 22 21 20 19 18 18 18 19 20 20 20 19 19 19 20 21 22 23 24 24 24 24 24 24 24 24 24 24 24 24 24 24 24
14 14 14 15 15 16 16 17 17 17 17 17 17 17 17 17 17 17 18 18 18 18 18 18 19 19 19 18 17 16 16 16 16 17 17 18 19 19 19 19 19 20 20 21 21 21 21 22 22 22 22 23 23 22 21 20 19 18 18 18 19 20 20 19 19 19 19 20 21 23 24 24 25 25 25 26 26 25 25 24 24 24 24 24 24 24
15 15 15 16 16 16 17 17 17 18 18 18 18 17 17 18 18 18 19 19 19 19 19 20 20 20 19 19 18 17 17 17 17 17 18 19 19 20 20 20 20 20 21 21 21 22 22 22 23 23 23 23 23 22 21 19 19 18 18 19 19 20 20 19 19 19 20 21 22 23 24 25 26 26 26 27 27 26 25 25 24 24 24 24 24 24
16 16 16 17 17 17 17 17 18 18 19 19 19 19 19 19 19 19 20 20 20 20 20 20 20 20 20 20 19 18 18 18 18 18 18 19 19 20 21 21 21 21 21 21 22 22 22 23 23 23 23 23 22 22 21 20 19 19 19 19 20 20 19 19 19 19 20 21 22 23 25 25 26 27 27 27 27 27 26 25 24 24 25 25 25 25
18 18 18 18 18 18 18 18 19 19 19 19 20 20 20 20 20 20 21 21 21 21 21 21 21 21 21 21 20 19 19 19 19 18 18 18 19 20 21 22 22 21 22 22 22 22 23 24 24 24 23 23 22 21 21 20 20 20 20 20 19 19 19 19 19 19 20 21 23 24 25 26 27 27 27 27 27 27 26 25 24 24 24 25 26 26
Wind_Direction
280 282 281 280 277 275 276 278 279 279 277 271 265 259 257 261 269 277 281 282 280 278 276 275 274 274 276 277 276 275 272 269 268 269 271 274 277 276 271 264 260 258 258 258 257 257 257 257 258 259 259 259 259 260 261 261 261 261 261 261 261 260 260 258 257 257 256 254 252 250 250 251 251 252 254 256 259 263 266 269 273 277 281 284 287 290
281 280 278 276 275 276 279 280 279 277 273 267 261 257 260 268 277 283 285 284 282 280 278 275 274 273 274 274 273 271 268 266 266 267 270 273 276 274 268 262 258 257 256 256 256 256 257 258 260 262 264 265 266 266 267 267 266 265 264 263 260 257 255 254 253 253 254 254 255 256 258 259 259 258 258 259 260 263 266 269 273 277 280 283 285 285
277 275 274 275 277 280 282 280 277 271 266 261 258 261 269 278 284 288 288 287 283 280 277 275 273 272 271 270 269 267 265 264 264 266 269 272 275 273 266 260 256 254 254 254 254 254 255 257 259 261 264 266 267 268 268 268 267 267 266 264 262 259 257 256 256 256 256 256 258 259 261 261 261 260 260 260 262 265 268 271 274 276 279 280 280 279
272 272 273 277 280 282 280 275 270 264 260 260 265 272 279 285 289 290 289 287 284 280 276 273 271 269 268 266 265 263 261 261 262 264 268 272 273 270 263 258 254 252 252 251 252 252 253 255 257 260 262 265 266 267 267 266 265 265 265 265 264 263 262 261 260 259 258 257 256 257 257 258 258 259 260 262 264 266 269 271 273 274 274 275 274 273
271 272 275 278 279 277 272 268 263 262 265 270 277 282 286 288 289 289 287 285 282 278 274 271 269 266 264 261 259 258 258 259 261 264 267 271 271 267 261 256 252 251 250 250 250 251 253 255 257 260 262 264 266 267 266 266 265 265 265 265 265 264 263 262 260 258 256 254 253 253 254 255 256 258 260 262 264 266 267 269 270 270 270 270 270 269
273 273 274 274 272 269 268 267 268 272 277 281 284 286 287 287 286 284 281 278 275 273 271 268 266 263 260 257 254 254 255 258 260 263 266 268 268 263 258 253 251 249 249 249 250 251 253 255 258 261 264 266 267 268 268 268 267 267 266 265 263 262 261 259 257 255 254 253 252 252 253 254 256 257 259 260 262 264 265 266 266 267 267 267 267 268
269 270 270 268 267 268 270 273 277 280 284 285 286 285 284 283 281 278 274 271 268 266 265 264 262 260 256 253 251 252 254 257 260 263 265 266 264 260 255 251 249 248 248 248 250 252 255 258 261 264 266 268 269 269 270 269 268 267 265 263 261 260 258 257 256 255 254 254 254 254 255 256 257 258 259 259 260 261 262 263 264 265 266 266 267 267
264 265 265 265 266 269 272 276 279 281 283 283 283 282 281 279 276 272 268 265 262 260 259 259 258 256 254 251 250 251 254 257 260 262 264 264 261 256 252 249 248 247 248 249 251 254 257 261 264 267 269 271 271 271 270 268 266 264 262 260 259 258 257 256 256 256 256 256 256 257 257 258 258 259 259 259 260 260 261 262 263 264 265 266 266 266
264 266 267 268 270 272 274 276 277 278 279 280 280 279 277 274 271 267 263 259 257 255 254 254 253 252 252 252 252 253 255 257 258 260 262 261 257 253 250 248 247 247 248 250 253 257 261 265 268 271 273 274 274 273 272 268 264 260 257 256 256 256 256 256 256 256 257 257 258 258 259 259 259 259 259 260 260 260 261 261 262 263 263 264 264 264
266 268 271 271 271 272 274 275 275 275 276 277 277 275 272 269 266 262 259 255 253 253 252 249 248 248 250 252 253 254 255 256 258 260 260 258 253 250 248 247 247 249 250 253 256 260 265 269 272 274 275 276 276 275 274 271 265 259 255 253 254 254 255 256 256 257 257 258 258 258 259 259 259 259 260 260 260 260 261 261 261 261 262 262 262 262
265 267 270 271 271 271 271 272 272 273 274 273 272 270 268 265 262 259 256 253 251 249 248 246 245 246 249 252 254 254 254 254 257 259 259 256 251 248 247 246 248 250 252 256 260 264 268 272 274 276 276 276 276 276 275 273 268 261 255 253 253 254 255 255 256 257 257 258 258 258 259 259 259 259 260 260 260 261 261 261 261 261 260 259 259 258
263 265 267 268 268 267 267 267 269 270 270 269 266 264 263 262 260 258 254 252 250 248 245 245 245 246 249 251 253 253 253 253 254 255 254 252 248 246 245 246 248 251 254 258 263 267 271 274 276 277 277 275 275 274 274 273 269 263 258 256 254 254 255 256 257 257 258 258 258 259 259 259 259 260 260 261 261 261 261 261 260 259 258 257 255 254
261 262 262 262 262 262 263 266 267 268 267 266 265 264 262 261 260 257 252 251 249 248 247 247 247 248 249 250 250 250 251 252 252 251 249 247 245 243 243 245 248 252 256 261 266 270 272 275 276 276 276 274 273 272 272 271 268 265 261 258 257 257 257 257 258 258 259 259 259 259 259 259 260 260 261 261 261 261 260 259 259 257 256 254 252 250
258 259 259 260 261 263 264 266 267 268 268 269 269 268 267 264 260 255 250 247 245 245 246 248 249 250 250 249 248 248 248 247 247 246 244 243 243 242 242 245 249 254 259 264 269 272 273 275 275 275 274 272 271 270 269 269 267 265 263 261 260 259 259 259 259 259 259 259 259 259 259 260 260 260 260 260 260 259 258 257 256 254 252 250 247 246
255 256 258 260 263 265 266 266 267 269 271 272 272 271 268 262 256 250 247 245 243 243 245 247 250 252 251 250 248 246 245 243 241 240 240 241 242 243 243 246 251 256 262 266 270 273 274 274 274 273 272 270 269 268 267 267 266 265 263 262 261 261 260 260 260 260 259 259 259 259 259 259 260 260 259 259 257 256 254 253 251 250 248 245 243 241
255 255 257 259 262 264 265 267 270 273 275 274 272 268 263 256 250 246 244 244 244 244 245 247 250 251 252 253 252 247 243 241 240 239 239 240 242 244 246 249 253 259 264 268 270 272 273 273 272 271 269 268 267 266 265 264 264 263 263 262 262 261 261 260 260 259 259 259 259 258 258 258 258 258 257 256 254 252 250 248 246 244 242 240 238 236
255 255 256 258 261 264 265 268 272 275 275 270 264 258 254 251 246 243 243 243 244 245 247 249 249 250 250 251 251 249 245 242 240 240 240 240 243 246 249 252 256 261 266 269 271 271 271 271 270 268 267 265 264 263 263 262 263 262 262 262 262 261 261 260 260 260 259 259 258 258 257 257 256 255 254 251 249 247 245 243 241 238 236 234 232 231
257 257 258 258 261 264 265 266 266 264 259 255 249 244 240 239 240 241 242 243 245 247 249 250 251 252 251 246 247 250 247 242 241 241 241 243 246 249 253 255 259 262 266 268 269 270 269 269 267 266 264 263 262 261 261 261 261 261 261 261 261 261 261 260 260 260 259 259 257 256 255 253 252 251 248 246 244 241 239 237 234 232 230 228 227 225
260 259 258 258 258 259 258 257 255 252 248 244 240 237 236 237 239 241 243 245 246 248 250 250 250 252 252 249 249 250 246 242 241 242 243 246 249 252 255 258 260 263 264 266 266 267 267 266 265 263 262 260 259 259 259 259 259 259 260 260 260 259 259 259 259 258 257 256 254 252 251 249 247 245 243 241 238 236 233 231 229 226 224 223 221 219
261 261 258 255 253 253 254 252 251 249 246 245 244 241 236 238 241 243 244 247 248 249 249 249 248 248 247 246 246 245 241 240 241 243 245 248 251 254 257 259 261 263 263 263 264 264 263 263 262 261 259 258 257 257 257 258 258 258 258 258 258 257 257 256 255 254 253 251 249 248 246 244 242 240 238 235 233 230 228 225 223 221 219 218 217 214
261 259 256 254 254 254 255 254 253 253 252 253 252 249 245 244 244 245 247 248 248 247 246 245 243 242 240 239 238 238 237 238 240 244 247 250 253 255 258 260 262 262 262 262 261 261 260 260 259 258 256 256 255 256 256 256 257 257 257 256 255 254 253 252 251 249 248 246 244 243 241 239 238 235 233 230 228 225 223 221 219 216 215 214 212 210
259 259 259 261 263 263 261 260 259 259 260 261 258 254 252 249 248 247 248 248 246 245 245 242 239 237 236 234 234 236 237 239 242 245 250 253 255 258 260 262 263 262 261 260 259 259 258 257 256 255 254 254 253 254 254 255 255 255 254 253 252 251 249 248 246 245 243 241 240 238 237 236 234 232 229 226 223 221 218 216 214 212 211 209 208 205
260 263 266 269 270 270 268 267 266 266 266 265 263 260 257 251 247 243 242 240 240 241 241 240 238 236 235 234 235 237 240 242 245 249 253 255 258 261 262 262 263 262 261 259 258 257 256 255 254 254 253 252 252 252 252 252 252 252 251 250 249 247 246 244 242 240 238 237 236 235 234 232 230 228 226 223 220 217 214 212 210 208 207 205 204 201
264 266 268 270 271 271 270 269 269 268 267 265 262 258 254 249 244 237 232 233 233 233 232 233 235 235 236 236 238 240 244 247 251 254 256 258 260 262 263 263 262 261 260 258 257 255 254 253 253 252 252 251 250 250 250 249 249 248 247 246 245 243 242 240 238 236 235 233 233 232 231 229 227 225 223 220 217 214 212 210 208 206 205 203 201 199
266 267 268 268 269 270 270 270 268 267 264 260 256 252 249 247 246 245 245 243 239 236 235 236 236 237 238 240 242 244 249 253 256 257 259 261 262 262 263 263 262 260 259 257 255 254 253 252 252 251 250 249 248 247 246 246 245 244 244 243 242 240 238 236 234 233 232 231 230 229 228 227 225 223 220 218 215 213 211 209 207 206 204 203 201 198
267 268 269 269 270 270 270 269 268 265 261 257 254 251 250 251 251 251 249 247 244 242 241 240 241 242 244 245 247 249 253 256 259 260 261 262 263 263 262 261 260 259 258 256 255 253 252 252 250 249 248 247 245 244 243 243 242 242 241 240 239 237 235 233 232 230 230 229 228 227 226 225 223 221 218 216 214 212 211 209 207 206 205 203 202 200
268 269 270 270 271 270 270 268 266 264 261 259 258 257 256 256 255 254 251 250 250 249 248 247 247 249 250 251 252 253 256 258 260 261 261 262 262 262 261 260 259 258 257 255 254 253 252 251 250 248 246 244 242 241 241 241 241 240 240 238 237 235 233 231 230 229 228 228 227 226 225 224 222 220 218 216 215 213 212 211 210 209 207 206 205 203
266 268 269 269 269 268 267 265 264 263 263 262 262 262 261 259 256 254 253 254 254 253 253 253 253 254 255 256 256 257 257 258 259 260 261 261 261 261 261 259 257 256 255 255 254 252 251 250 248 246 244 241 240 239 239 240 240 240 239 237 235 233 232 230 229 228 228 227 226 226 225 224 223 221 219 218 216 215 214 213 213 212 211 210 208 206
265 266 266 266 266 265 265 264 264 264 264 264 264 264 263 261 257 254 253 254 253 253 254 255 256 257 257 258 259 258 257 257 258 259 260 259 260 260 260 259 256 254 254 254 254 252 250 248 247 244 242 240 238 238 238 239 239 238 237 236 234 232 231 230 229 228 228 227 227 226 226 225 224 223 221 220 219 218 217 217 216 216 215 214 212 210
270 270 270 269 268 267 267 267 267 267 267 267 266 266 265 263 260 257 254 254 253 252 252 254 255 255 256 256 257 258 258 257 258 258 259 259 259 259 259 257 254 252 252 253 254 253 251 247 244 243 241 239 238 237 238 238 238 237 236 235 233 232 231 231 230 229 229 228 228 227 227 226 226 225 225 223 223 222 221 221 221 221 220 218 216 214
278 277 276 275 274 273 273 272 272 271 271 270 269 267 266 264 261 258 256 255 254 253 253 254 254 255 255 255 256 257 259 260 259 257 257 257 257 257 256 254 252 250 249 249 251 253 253 248 243 240 240 239 238 238 237 237 237 237 236 235 234 233 233 232 232 231 231 230 230 229 229 228 228 228 228 227 227 226 226 226 226 226 224 222 220 219
283 282 281 280 279 279 278 277 276 275 274 272 270 268 266 264 261 258 256 255 254 253 253 253 254 254 255 255 256 257 260 260 258 255 253 254 254 254 252 250 249 248 246 246 246 247 249 248 243 238 239 239 239 238 237 237 236 236 236 235 235 235 234 234 234 234 233 233 232 232 231 231 231 231 231 231 231 231 231 231 231 231 229 227 225 223
287 286 285 284 284 283 282 281 279 278 275 273 270 267 265 263 261 259 256 255 254 253 253 253 253 254 255 256 256 257 257 257 255 252 250 250 251 251 250 248 247 246 245 244 243 243 243 245 243 240 239 239 239 238 237 237 236 236 236 236 236 236 236 235 235 236 235 235 235 235 235 234 234 234 233 233 233 234 234 234 235 235 233 231 229 227
290 289 288 288 287 286 284 282 280 278 275 272 269 266 264 262 260 258 257 255 254 253 253 253 253 254 255 255 256 256 255 254 251 249 247 248 249 250 248 246 245 243 243 242 242 242 243 243 242 241 240 239 239 238 237 237 236 236 236 236 236 236 236 236 236 237 237 237 237 237 237 237 237 236 236 235 235 234 235 235 236 236 235 233 232 231
290 290 289 289 288 286 285 282 280 276 273 270 267 264 262 260 258 257 256 256 255 255 254 254 254 254 254 255 255 254 252 250 248 246 245 245 246 247 247 245 242 241 240 240 241 241 242 242 241 241 240 240 239 238 237 237 236 236 236 236 236 236 237 237 238 238 239 239 239 239 239 239 239 238 238 237 236 236 235 236 236 237 236 235 234 233
289 289 288 288 287 286 284 281 278 275 271 267 264 262 259 258 257 256 256 256 256 256 255 255 254 253 253 253 253 252 250 247 245 244 243 243 244 244 244 242 240 238 237 238 239 240 241 241 241 241 241 241 240 239 238 237 237 237 237 237 237 238 238 239 240 241 242 242 242 243 243 242 242 241 241 240 239 238 237 237 237 238 238 237 236 235
288 288 287 287 286 284 282 280 278 274 270 266 263 260 258 257 256 255 255 255 255 256 256 255 254 253 252 251 249 248 248 246 245 244 243 243 243 243 242 241 238 236 236 236 238 239 240 240 241 241 241 241 241 240 239 238 239 239 239 239 239 240 241 242 243 244 245 246 246 247 247 246 246 245 245 244 243 242 241 241 241 240 240 240 239 238
286 286 285 284 283 281 280 278 276 274 270 267 264 262 260 258 256 255 255 255 254 255 255 254 253 252 251 249 248 246 246 246 245 244 244 243 243 242 242 240 238 237 236 236 237 238 239 239 240 241 242 242 242 242 241 240 240 240 241 241 242 243 244 245 246 247 248 249 249 250 250 250 250 250 249 248 247 246 245 244 244 243 243 243 242 241
285 283 281 279 278 277 275 274 273 271 270 268 266 265 263 261 259 257 255 254 253 253 253 252 251 250 249 247 246 246 245 245 244 244 243 243 242 242 242 241 239 237 237 237 238 239 239 240 240 242 243 244 244 243 242 241 241 241 242 243 244 245 246 248 249 250 250 251 252 253 253 253 254 253 253 252 251 250 249 248 247 246 245 245 245 244
284 280 277 275 275 274 273 272 271 270 269 269 268 268 267 265 262 259 257 255 253 252 252 251 250 249 248 246 245 245 245 245 244 244 243 243 242 242 241 241 240 239 238 239 239 240 240 241 242 243 244 245 245 244 243 242 242 242 243 244 245 247 248 249 250 251 252 253 254 255 255 256 256 256 255 255 254 252 251 250 249 248 247 246 246 246
285 280 276 274 273 272 272 272 272 271 270 270 269 269 268 266 264 262 260 258 256 254 253 252 251 250 248 247 246 245 245 245 244 244 244 244 243 243 242 241 241 240 240 240 240 241 242 243 243 244 244 245 246 245 244 243 243 243 244 245 246 248 249 251 252 253 254 255 256 256 257 257 257 257 257 256 255 254 253 252 252 251 250 249 248 248
288 283 278 274 273 273 273 273 272 272 271 270 269 268 268 267 266 265 264 262 260 258 257 256 255 254 252 250 248 247 246 246 246 245 245 245 245 245 244 243 242 241 241 241 241 242 242 243 244 245 245 245 246 246 244 243 243 244 245 246 248 249 251 252 253 255 256 257 257 257 258 258 258 258 258 257 256 256 255 255 254 253 252 251 250 249
289 285 280 276 274 273 273 273 272 271 269 268 267 267 267 266 266 265 265 263 262 261 260 259 257 256 254 252 251 249 249 248 247 246 246 246 246 246 245 245 243 243 242 242 243 243 243 243 244 244 245 245 246 246 245 243 243 244 245 247 248 249 250 251 254 256 257 258 259 260 259 259 259 259 258 258 258 258 257 257 257 256 255 254 252 251
287 283 279 276 273 272 272 271 271 269 268 266 265 265 265 265 265 264 264 263 262 262 261 260 259 257 256 254 253 251 250 250 249 248 247 247 246 246 246 245 245 244 243 243 244 244 243 243 243 244 244 244 244 245 244 243 242 243 244 246 248 249 250 252 254 256 257 259 260 261 261 261 261 260 260 260 259 259 259 259 259 258 258 256 255 254
283 279 276 273 271 270 269 269 269 268 268 267 266 266 266 265 264 264 264 263 262 261 261 260 259 258 257 256 254 252 251 251 251 250 250 249 248 247 246 246 246 245 244 244 244 244 244 243 243 242 242 242 243 243 243 242 242 242 243 245 247 250 253 254 254 254 255 258 260 261 262 262 262 262 262 262 261 261 261 260 260 260 259 259 258 256
281 279 276 273 271 269 268 267 268 268 269 269 269 269 268 266 265 264 263 263 263 262 261 259 258 258 258 257 255 253 251 251 251 252 252 251 250 248 247 247 246 246 245 245 244 244 244 244 243 242 241 241 242 243 243 242 242 241 241 243 245 248 250 251 252 253 254 256 258 259 261 262 263 263 263 263 263 263 262 262 262 261 261 260 260 258
284 282 279 275 273 270 268 268 268 268 268 268 269 269 269 268 267 265 264 264 263 263 261 260 259 258 258 258 256 254 252 250 250 250 252 253 253 251 250 249 248 248 247 246 246 245 245 245 244 243 243 243 243 243 243 243 243 243 242 243 244 246 248 249 250 252 253 254 255 257 259 261 262 263 264 264 265 264 264 264 264 263 263 262 261 260
287 285 282 279 275 273 270 269 268 268 267 267 267 268 268 267 267 266 265 264 264 263 262 261 260 259 259 259 257 256 254 252 250 249 250 252 254 254 253 252 251 250 249 249 248 247 247 246 246 245 245 246 246 247 246 245 245 245 245 244 244 245 247 248 248 249 250 252 254 255 257 259 261 262 264 265 265 265 265 265 265 265 265 264 263 262
287 285 283 281 278 275 272 271 269 268 267 266 266 266 266 266 265 265 264 264 263 262 262 262 261 261 261 260 259 258 256 255 253 251 251 252 253 255 255 255 253 253 252 251 251 250 250 249 248 247 247 248 249 250 249 247 246 246 245 245 245 246 247 247 247 247 248 250 252 254 256 258 260 262 263 264 265 266 267 266 266 266 266 266 265 264
284 283 282 280 278 276 274 272 270 268 267 266 266 265 265 264 264 264 263 263 263 262 262 262 262 262 262 261 260 259 258 257 255 253 253 253 254 255 256 256 255 254 254 254 254 253 253 252 251 250 249 249 250 251 251 250 248 247 246 246 246 247 248 248 247 246 247 248 250 252 254 256 259 261 262 264 266 267 268 268 267 267 267 267 266 265
280 280 279 278 278 276 275 273 271 269 268 266 265 264 264 263 263 263 263 263 263 263 263 262 262 263 262 262 261 260 259 257 256 255 254 254 255 256 256 256 256 255 255 255 255 255 255 255 254 253 251 250 250 251 253 253 252 250 248 247 247 248 250 250 249 248 248 248 250 251 253 255 258 260 262 264 266 268 269 269 268 267 266 266 266 265